Cosmos 1486 Rocket - Orbit

View from above orbital plane
View from above orbital plane
View from above satellite
View from above satellite

Ground track
Ground track

The orbit data is extracted from the following two-line orbital elements,

1 14241U 83079B   13142.14288642  .00000137  00000-0  56403-4 0  4308
2 14241 074.0616 090.6568 0017375 181.4482 277.2105 14.35576411559373
Epoch (UTC): 22 May 2013 03:25:45
Eccentricity: 0.0017375
inclination: 74.0616°
perigee height: 761 km
apogee height: 785 km
right ascension of ascending node: 90.6568°
argument of perigee: 181.4482°
revolutions per day: 14.35576411
mean anomaly at epoch: 277.2105°
orbit number at epoch: 55937

The dashed part of the orbit path shows where the satellite is in the earth's shadow,  

Developed and maintained by Chris Peat, Heavens-Above GmbH. Please read the updated FAQ before sending e-mail. Imprint. DLR